Meteo Giornale » Osservazioni meteo Italia » Bologna-Borgo Panigale

ore: 03:50 - Osservazioni Meteo Bologna-Borgo Panigale
Lat. 44° 32' N Lon. 11° 18' E Alt. 36 metri s.l.m.

sereno Europe/Rome

11 °C

Sereno

Temp. 24 Ore

11 °C

22 °C

Sud/Sud-Ovest

9.3 Km/h

Dew point 8 °C

Umidità 81 %

Visibilità  10 Km

Il sole sorge alle ore 07:33

Il sole tramonta alle ore 18:26

Data e Ora Cielo e Fenomeni T °C DP °C Um. % Pres. hPa Vis. km Vento km/h
Oggi h: 03:50 sereno Sereno 11 8 81 1020 10 S/SO 9.3
Oggi h: 03:20 sereno Sereno 11 8 81 1021 10 S/SO 13
Oggi h: 02:50 sereno Sereno 11 8 81 1021 7 S/SO 13
Oggi h: 02:20 sereno Sereno 12 9 81 1021 7 S/SO 9.3
Oggi h: 01:50 sereno Sereno 12 9 81 1021 7 S/SO 11.1
Oggi h: 01:20 sereno Sereno 12 9 81 1021 7 S/SO 11.1
Oggi h: 00:50 sereno Sereno 12 10 87 1021 7 S/SO 9.3
Oggi h: 00:20 sereno Sereno 13 10 81 1022 7 SO 7.4
Ieri h: 23:50 sereno Sereno 14 11 82 1022 7 S/SO 7.4
Ieri h: 23:20 sereno Sereno 14 11 82 1022 7 S/SO 9.3
Ieri h: 22:50 sereno Sereno 14 11 82 1022 7 S/SO 11.1
Ieri h: 22:20 sereno Sereno 14 11 82 1022 7 N 3.7
Ieri h: 21:50 sereno Sereno 14 11 82 1022 7 N 3.7
Ieri h: 21:20 sereno Sereno 14 11 82 1022 6 N 3.7
Ieri h: 20:50 sereno Sereno 15 12 82 1022 6 N 3.7
Ieri h: 20:20 sereno Sereno 16 11 72 1022 6 N 5.5
Ieri h: 19:50 sereno Sereno 15 11 76 1022 6 N 3.7
Ieri h: 19:20 sereno Sereno 15 11 76 1022 6 N 3.7
Ieri h: 18:50 sereno Sereno 17 11 67 1022 6 N 5.5
Ieri h: 18:20 sereno Sereno 19 12 63 1022 7 N 3.7
Ieri h: 17:50 sereno Sereno 20 12 59 1022 8 N 5.5
Ieri h: 17:20 sereno Sereno 21 12 56 1022 8 N 5.5
Ieri h: 16:50 sereno Sereno 22 12 53 1023 8 N 3.7
Ieri h: 16:20 sereno Sereno 22 11 49 1023 8 N 5.5
Ieri h: 15:50 sereno Sereno 22 11 49 1023 9 E 7.4
Ieri h: 15:20 sereno Sereno 22 12 53 1023 9 N 5.5
Ieri h: 14:50 sereno Sereno 22 11 49 1024 9 N 5.5
Ieri h: 14:20 sereno Sereno 22 11 49 1024 9 N 3.7
Ieri h: 13:50 sereno Sereno 21 11 52 1024 9 N 3.7
Ieri h: 13:20 sereno Sereno 20 11 56 1025 10 N 3.7
Ieri h: 12:50 sereno Sereno 20 10 52 1025 10 N 5.5
Ieri h: 12:20 sereno Sereno 19 10 55 1026 10 N 5.5
Ieri h: 11:50 sereno Sereno 19 9 52 1026 10 N 5.5
Ieri h: 11:20 sereno Sereno 18 11 63 1026 10 N 5.5
Ieri h: 10:50 sereno Sereno 17 10 63 1026 10 N 3.7
Ieri h: 10:20 sereno Sereno 16 9 63 1026 10 N 5.5
Ieri h: 09:50 sereno Sereno 15 8 62 1026 10 SO 9.3
Ieri h: 09:20 sereno Sereno 13 7 66 1026 10 S/SO 9.3
Ieri h: 08:50 sereno Sereno 13 7 66 1026 10 N 5.5
Ieri h: 08:20 sereno Sereno 12 7 71 1025 10 S/SO 14.8
Ieri h: 07:50 sereno Sereno 11 6 71 1025 10 S/SO 13
Ieri h: 07:20 sereno Sereno 11 6 71 1025 10 S/SO 13
Ieri h: 06:50 sereno Sereno 11 6 71 1025 10 S/SO 11.1
Ieri h: 06:20 sereno Sereno 11 6 71 1025 10 S/SO 9.3
Ieri h: 05:50 sereno Sereno 11 6 71 1025 10 S/SO 9.3
Ieri h: 05:20 sereno Sereno 12 6 66 1025 10 S/SO 13
Ieri h: 04:50 sereno Sereno 12 6 66 1025 10 S/SO 14.8